TimeCDT,TemperatureF,Dew PointF,Humidity,Sea Level PressureIn,VisibilityMPH,Wind Direction,Wind SpeedMPH,Gust SpeedMPH,PrecipitationIn,Events,Conditions,WindDirDegrees,DateUTC
12:53 AM,59.0,57.0,93,30.03,10.0,Calm,Calm,-,N/A,,Clear,0,2013-09-03 05:53:00
1:53 AM,59.0,57.9,96,30.04,6.0,Calm,Calm,-,N/A,,Clear,0,2013-09-03 06:53:00
2:53 AM,57.0,55.9,96,30.04,6.0,Calm,Calm,-,N/A,,Clear,0,2013-09-03 07:53:00
3:28 AM,55.4,55.4,100,30.06,1.8,Calm,Calm,-,N/A,,Clear,0,2013-09-03 08:28:00
3:41 AM,55.4,55.4,100,30.06,4.0,Calm,Calm,-,N/A,,Clear,0,2013-09-03 08:41:00
3:53 AM,55.9,55.9,100,30.04,7.0,NW,3.5,-,N/A,,Clear,320,2013-09-03 08:53:00
4:25 AM,55.4,55.4,100,30.05,1.8,Calm,Calm,-,0.01,,Clear,0,2013-09-03 09:25:00
4:39 AM,55.4,55.4,100,30.06,3.0,Calm,Calm,-,0.01,,Clear,0,2013-09-03 09:39:00
4:53 AM,55.0,55.0,100,30.04,6.0,Calm,Calm,-,0.01,,Clear,0,2013-09-03 09:53:00
5:04 AM,55.4,55.4,100,30.06,1.8,Calm,Calm,-,N/A,,Clear,0,2013-09-03 10:04:00
5:32 AM,55.4,55.4,100,30.07,3.0,Calm,Calm,-,N/A,,Clear,0,2013-09-03 10:32:00
5:43 AM,55.4,55.4,100,30.07,1.8,Calm,Calm,-,N/A,,Clear,0,2013-09-03 10:43:00
5:48 AM,55.4,55.4,100,30.07,0.8,Calm,Calm,-,N/A,,Mist,0,2013-09-03 10:48:00
5:53 AM,55.0,54.0,96,30.06,0.5,Calm,Calm,-,N/A,Fog,Fog,0,2013-09-03 10:53:00
5:58 AM,55.4,53.6,94,30.07,1.0,Calm,Calm,-,N/A,,Clear,0,2013-09-03 10:58:00
6:07 AM,55.4,55.4,100,30.07,3.0,Calm,Calm,-,N/A,,Clear,0,2013-09-03 11:07:00
6:14 AM,55.4,55.4,100,30.08,2.0,Calm,Calm,-,N/A,,Partly Cloudy,0,2013-09-03 11:14:00
6:39 AM,53.6,51.8,94,30.08,1.0,Calm,Calm,-,N/A,,Clear,0,2013-09-03 11:39:00
6:53 AM,53.1,53.1,100,30.07,1.0,Calm,Calm,-,N/A,,Clear,0,2013-09-03 11:53:00
7:02 AM,51.8,51.8,100,30.09,0.8,Calm,Calm,-,N/A,,Clear,0,2013-09-03 12:02:00
7:09 AM,51.8,51.8,100,30.09,2.0,Calm,Calm,-,N/A,,Clear,0,2013-09-03 12:09:00
7:17 AM,51.8,51.8,100,30.09,4.0,Calm,Calm,-,N/A,,Clear,0,2013-09-03 12:17:00
7:53 AM,57.0,57.0,100,30.09,10.0,Calm,Calm,-,N/A,,Clear,0,2013-09-03 12:53:00
8:53 AM,62.1,60.1,93,30.11,10.0,Calm,Calm,-,N/A,,Clear,0,2013-09-03 13:53:00
9:53 AM,66.9,60.1,79,30.11,10.0,SSE,3.5,-,N/A,,Clear,150,2013-09-03 14:53:00
10:53 AM,72.0,62.1,71,30.11,10.0,Variable,3.5,-,N/A,,Clear,0,2013-09-03 15:53:00
11:53 AM,75.9,62.1,62,30.09,10.0,SSE,4.6,-,N/A,,Clear,150,2013-09-03 16:53:00
12:53 PM,79.0,60.1,52,30.08,10.0,Calm,Calm,-,N/A,,Clear,0,2013-09-03 17:53:00
1:53 PM,80.1,59.0,48,30.06,10.0,Calm,Calm,-,N/A,,Clear,0,2013-09-03 18:53:00
2:53 PM,81.0,61.0,50,30.04,10.0,SE,5.8,-,0.01,,Clear,130,2013-09-03 19:53:00
3:53 PM,81.0,61.0,50,30.03,10.0,South,5.8,-,N/A,,Clear,190,2013-09-03 20:53:00
4:53 PM,82.0,62.1,51,30.03,10.0,Calm,Calm,-,N/A,,Clear,0,2013-09-03 21:53:00
5:53 PM,80.1,63.0,56,30.02,10.0,ESE,3.5,-,N/A,,Clear,120,2013-09-03 22:53:00
6:53 PM,78.1,66.9,68,30.03,10.0,Calm,Calm,-,N/A,,Clear,0,2013-09-03 23:53:00
7:53 PM,73.9,64.0,71,30.03,10.0,Calm,Calm,-,N/A,,Clear,0,2013-09-04 00:53:00
8:53 PM,72.0,64.0,76,30.03,10.0,Calm,Calm,-,N/A,,Clear,0,2013-09-04 01:53:00
9:53 PM,66.9,64.0,90,30.03,10.0,Calm,Calm,-,N/A,,Clear,0,2013-09-04 02:53:00
10:53 PM,66.0,63.0,90,30.03,10.0,Calm,Calm,-,N/A,,Clear,0,2013-09-04 03:53:00
11:53 PM,64.0,61.0,90,30.04,10.0,Calm,Calm,-,N/A,,Clear,0,2013-09-04 04:53:00